Regional Weather Roundup
Issued by NWS

Home | Current Version | Previous Version | Text Only | Print | Product List | Glossary Off
Versions: 1 2 3 4 5 6 7 8 9 10 11 12 13 14 15 16 17 18 19 20 21 22 23 24 25 26 27 28 29 30 31 32 33 34 35 36 37 38 39 40 41 42 43 44 45 46 47 48 49 50

000
ASUS43 KIND 282109
RWRIN

WEATHER ROUNDUP FOR INDIANA
NATIONAL WEATHER SERVICE INDIANAPOLIS IN
500 PM EDT THU JUL 28 2016

NOTE: "FAIR" INDICATES FEW OR NO CLOUDS BELOW 12,000 FEET WITH NO
SIGNIFICANT WEATHER AND/OR OBSTRUCTIONS TO VISIBILITY.

* - STATION DOES NOT REPORT WEATHER SUCH AS PRECIPITATION OR FOG.

+ - STATION NOT QUALITY CONTROLLED BY THE NATIONAL WEATHER SERVICE.
    USE DATA WITH CAUTION...ESPECIALLY DEWPOINT AND RELATIVE
    HUMIDITY OBSERVATIONS.

INZ001>003-010>013-019-020-282200-
NORTHWEST INDIANA

CITY           SKY/WX    TMP DP  RH WIND       PRES   REMARKS
GARY /AIRPORT/ LGT RAIN  73  72  94 NW8       29.90S
KNOX *+        PTSUNNY   86  52  30 CALM      29.87S
LA PORTE +     PTSUNNY   84  68  57 W5        29.88S
MICHIGAN CITY+ CLOUDY    77  72  83 N6        29.88S
MONTICELLO +   CLOUDY    83  67  58 CALM      29.87S
RENSSELAER +   MOSUNNY   84  70  61 CALM      29.87F
VALPARAISO     MOSUNNY   85  65  51 S7        29.87F

$$

LMZ046-743>745-282200-
SOUTHERN LAKE MICHIGAN

STATION/POSITION TIME  TEMP    WIND        PRES    WAVE
                       AIR SEA DIR/SP/G            HT
                 (UTC) (F)     (DEG/KT/KT) (MB)    (FT)
BURNS HARBOR     2000   78      20/ 10/ 12 1011.9S
MICHIGAN CITY    2000   77     360/ 12/ 13   N/A
5NW MICH CITY    2100   77 78  360/  8/ 10   N/A     1

$$

INZ004-005-014>016-021>024-282200-
NORTH CENTRAL INDIANA

CITY           SKY/WX    TMP DP  RH WIND       PRES   REMARKS
GOSHEN         MOSUNNY   89  64  43 E7        29.86F
LOGANSPORT +   CLOUDY    84  68  58 CALM      29.88S
ROCHESTER +    SUNNY     88  68  51 CALM      29.87F
SOUTH BEND       N/A    N/A N/A N/A MISG      29.87F THUNDER
WARSAW +       MOSUNNY   84  64  51 SW3       29.87F

$$

INZ006>009-017-018-025>027-282200-
NORTHEAST INDIANA

CITY           SKY/WX    TMP DP  RH WIND       PRES   REMARKS
ANGOLA *+        N/A     82  79  89 VRB5      29.88F
AUBURN +       PTSUNNY   88  63  42 NE8       29.87F
FORT WAYNE     PTSUNNY   85  63  47 E7        29.86F
HUNTINGTON +   CLOUDY    83  67  57 S5        29.86F

$$

INZ028-029-035-036-043>045-051>053-282200-
WEST CENTRAL INDIANA

CITY           SKY/WX    TMP DP  RH WIND       PRES   REMARKS
CRAWFORDSVL +  SUNNY     83  70  64 CALM      29.87F
GREENCASTLE +  CLOUDY    81  75  83 CALM      29.88S
LAFAYETTE      MOSUNNY   85  70  60 CALM      29.86S
TERRE HAUTE    PTSUNNY   86  70  58 CALM      29.86F

$$

INZ030>032-037>040-046>048-054>057-064-065-282200-
CENTRAL INDIANA

CITY           SKY/WX    TMP DP  RH WIND       PRES   REMARKS
COLUMBUS       SUNNY     82  73  74 CALM      29.86F
INDIANAPOLIS   CLOUDY    87  67  51 CALM      29.86F
-EAGLE CREEK   MOSUNNY   88  68  51 VRB5      29.85F
KOKOMO *+      SUNNY     84  64  51 E3        29.87S
MARION +       MOSUNNY   83  66  54 N3        29.88F HAZE
MT COMFORT *+  CLOUDY    82  68  61 SE5       29.87F
SHELBYVILLE    PTSUNNY   82  73  74 CALM      29.85F
ZIONSVILLE +   MOSUNNY   82  68  62 CALM      29.88F

$$

INZ033-034-041-042-049-050-058-059-282200-
EAST CENTRAL INDIANA

CITY           SKY/WX    TMP DP  RH WIND       PRES   REMARKS
MUNCIE         PTSUNNY   87  66  49 NW5       29.87F

$$

INZ060-061-067>069-081>083-085>088-282200-
SOUTHWEST INDIANA

CITY           SKY/WX    TMP DP  RH WIND       PRES   REMARKS
EVANSVILLE     PTSUNNY   84  74  71 SW9       29.86S
HUNTINGBURG *+ MOSUNNY   84  73  70 S6        29.86F
WASHINGTON +   MOSUNNY   85  77  75 MISG      29.85S HX  96

$$

INZ062-063-066-070>080-084-089>092-282200-
SOUTH CENTRAL AND SOUTHEAST INDIANA

CITY           SKY/WX    TMP DP  RH WIND       PRES   REMARKS
BLOOMINGTON    TSTM      73  70  90 W6        29.89R FOG
MADISON *+     PTSUNNY   84  70  61 S3        29.88F
NORTH VERNON + SUNNY     84  75  74 CALM      29.87F

$$





USA.gov is the U.S. government's official web portal to all federal, state and local government web resources and services.